Location: Unspecified
(0.0000°N, 0.0000°E)
Time: 11:23:01
(UTC+00:00)

A-11 Canister half - Pass Details

Date: 26 November 2019
Orbit: 1526 x 1683 km, 47.3° (Epoch: 07 December)

Event Time Altitude Azimuth Distance (km) Brightness Sun altitude
Rises 16:29:17 0° 350° (N) 4,749 11.5 18.2°
Reaches altitude 10° 16:34:04 10° 10° (N) 3,737 10.8 17.1°
Maximum altitude 16:39:27 16° 46° (NE) 3,231 10.3 15.8°
Drops below altitude 10° 16:44:45 10° 81° (E) 3,697 10.5 14.6°
Sets 16:49:22 0° 101° (E) 4,673 11.0 13.5°
